Regional Weather Roundup
Issued by NWS

Home | Current Version | Previous Version | Graphics & Text | Print | Product List | Glossary On
Versions: 1 2 3 4 5 6 7 8 9 10 11 12 13 14 15 16 17 18 19 20 21 22 23 24 25 26 27 28
000
ASUS45 KTFX 252210
RWRMT
MONTANA REGIONAL WEATHER ROUNDUP
NATIONAL WEATHER SERVICE GREAT FALLS MT
400 PM MDT SAT MAR 25 2017

NOTE: "FAIR" INDICATES FEW OR NO CLOUDS BELOW 12000 FEET WITH NO
SIGNIFICANT WEATHER AND/OR OBSTRUCTIONS TO VISIBILITY.

MTZ001>007-043-252300-
WEST OF THE DIVIDE

CITY           SKY/WX    TMP DP  RH WIND       PRES   REMARKS
KALISPELL      CLOUDY    49  27  42 W14G20    29.93S
MISSOULA       PTSUNNY   50  31  48 SW14G25   29.95F
BUTTE          CLOUDY    45  19  35 W13       29.91F
MULLAN PASS    CLOUDY    30  30 100 NW6       29.93S FOG     WCI  24
ANACONDA         N/A     48  18  29 S6        29.92F
DEER LODGE       N/A     48  21  34 NW3       29.93F
EUREKA           N/A     48  25  40 S18       29.93S
HAMILTON         N/A     52  25  35 W5        29.93F
PLAINS           N/A     50  32  50 W16       29.97F
RONAN            N/A     47  32  56 S3        30.00F
$$

MTZ008-052>055-252300-
SOUTHWEST MONTANA

CITY           SKY/WX    TMP DP  RH WIND       PRES   REMARKS
BOZEMAN        CLOUDY    51  27  39 W6        29.91F
DILLON         MOSUNNY   51  21  30 W10G20    29.90F
W YELLOWSTONE  CLOUDY    36  28  75 SW13G18   29.95F WCI  27
ENNIS          SUNNY     46  25  42 VRB3      29.96S
THREE FORKS      N/A     54  54 100 SW3       29.91F
TWIN BRIDGES     N/A     51  23  33 E1        29.90F
$$

MTZ009-010-012-014-046-048-049-054-252300-
EAST SLOPES AND CENTRAL MONTANA

CITY           SKY/WX    TMP DP  RH WIND       PRES   REMARKS
CUT BANK       MOSUNNY   50  20  30 SW22G32   29.86F
GREAT FALLS    CLOUDY    55  18  23 W16G25    29.88F
MALMSTROM AFB  PTSUNNY   54  18  24 W14G26    29.89F
HELENA         CLOUDY    54  24  31 SW18      29.89F
AUGUSTA        PTSUNNY   49  17  27 SW16      29.87F
BOWMANS CRNR     N/A     49  19  29 SW14G25   29.86F
CHOTEAU          N/A     50  16  25 CALM      29.88F
CONRAD           N/A     55  20  25 SW14      29.90F
FAIRFIELD        N/A     52  18  25 SW13G20   29.87F
POWER          PTSUNNY   54  17  23 SW15      29.87F
RAYNESFORD     PTSUNNY   51  21  31 W13       29.89F
$$

MTZ011-013-016-021-045-047-050-051-252300-
NORTH CENTRAL MONTANA

CITY           SKY/WX    TMP DP  RH WIND       PRES   REMARKS
HAVRE          MOSUNNY   59  20  22 W16G23    29.85F
LEWISTOWN      MOSUNNY   52  14  22 CALM      29.88F
N BAR RANCH      N/A     50  18  27 E7        29.91F
CHINOOK          N/A     57  21  24 SW15G23   29.85S
DENTON           N/A     55  17  21 N9G20     29.84F
FORT BENTON      N/A     57  19  23 MISG      29.88F
GEYSER         PTSUNNY   51  20  29 NW13G22   29.88F
GRASS RANGE      N/A     55  11  17 W12       29.85F
STANFORD         N/A     50  19  29 NW17      29.88F
WINIFRED         N/A     55  16  21 S6        29.87F
$$

MTZ017>020-022>027-061-062-252300-
NORTHEAST MONTANA

CITY           SKY/WX    TMP DP  RH WIND       PRES   REMARKS
GLASGOW        MOSUNNY   59  24  26 NW13      29.87F
JORDAN           N/A     59  21  23 CALM      29.88F
SIDNEY         CLOUDY    59  27  29 W9        29.88S
WOLF POINT     PTSUNNY   63  28  26 W13       29.86F
MALTA          SUNNY     59  27  29 W9G21     29.86S
PLENTYWOOD       N/A     59  25  27 W14       29.84R
POPLAR           N/A     61  27  27 W13       29.86S
SCOBEY           N/A     59  24  26 W10       29.85S
$$

MTZ028>42-056>058-252300-
SOUTHCENTRAL AND SOUTHEAST MONTANA

CITY           SKY/WX    TMP DP  RH WIND       PRES   REMARKS
BAKER          CLOUDY    55  30  38 NW8       29.90S
BILLINGS       PTSUNNY   53  21  28 N6        29.91F
LIVINGSTON     CLOUDY    48  29  47 VRB3      29.90F
MILES CITY     CLOUDY    58  27  30 MISG      29.90F
BIG TIMBER     CLOUDY    46  34  61 E13G20    29.92
EKALAKA          N/A     54  30  40 NW9       29.89F
FORSYTH          N/A     55  27  33 NW3       29.90F
HARLOWTON      PTSUNNY   53  20  27 W16G25    29.89F
LAUREL           N/A     53  25  34 N1        29.92F
$$

REGIONAL REPORTS...DAKOTAS

CITY           SKY/WX    TMP DP  RH WIND       PRES   REMARKS
WILLISTON      MOSUNNY   59  28  30 W8        29.86S
MINOT          CLOUDY    52  37  56 SW12      29.87S
DICKINSON      CLOUDY    59  23  25 NW14      29.85S
BEACH            N/A    N/A N/A N/A MISG        N/A
TIOGA            N/A     55  32  41 W13G18    29.87R
WATFORD CITY     N/A     59  32  36 W7G16     29.87S
BISMARCK       MOSUNNY   54  30  40 S10       29.93F
GRAND FORKS    CLOUDY    37  34  89 S14       30.05F WCI  28
FARGO          CLOUDY    41  34  76 S14       30.07F
BUFFALO SD       N/A     62  32  32 N14       29.80S
RAPID CITY     SUNNY     63  30  28 N7        29.82F
$$

REGIONAL REPORTS...WYOMING/IDAHO/WASHINGTON

CITY           SKY/WX    TMP DP  RH WIND       PRES   REMARKS
GILLETTE       PTSUNNY   58  33  39 NE15      29.86F
SHERIDAN       CLOUDY    47  41  80 NW10      29.92F
BUFFALO WY     CLOUDY    52  36  54 N14G25    29.91F
CODY           CLOUDY    46  28  49 N12G17    29.92F
YELLOWSTONE LA   N/A     36  23  59 VRB7      29.95F WCI  30
IDAHO FALLS    PTSUNNY   48  35  60 S10       29.95F
SALMON         MOSUNNY   52  27  37 NW7       29.90F
BOISE          MOSUNNY   55  31  39 W10       30.01F
SPOKANE        PTSUNNY   48  29  47 W15       29.99S
$$

REGIONAL REPORTS...ALBERTA

CITY           SKY/WX    TMP DP  RH WIND       PRES   REMARKS
EDMONTON       SUNNY     46  32  57 SE2       29.72F
CALGARY        PTSUNNY   52   9  17 W10G17    29.71F
LETHBRIDGE     PTSUNNY   54  21  28 SW18G32   29.80S
MEDICINE HAT   PTSUNNY   59  21  23 W18G28    29.78F
WATERTON GATE    N/A     46  18  31 SW18G29     N/A
CARDSTON         N/A     48  23  37 SW14G21     N/A
MILK RIVER       N/A     52  19  28 W12         N/A
$$

REGIONAL REPORTS...SASKATCHEWAN

CITY           SKY/WX    TMP DP  RH WIND       PRES   REMARKS
SWIFT CURRENT  MOSUNNY   55  27  33 W13G18    29.79S
REGINA         PTSUNNY   52  36  54 NW21G26   29.80R
SASKATOON      PTSUNNY   41  36  81 NW15      29.80R
CYPRESS HILLS    N/A     50  18  27 W12G18      N/A
VAL MARIE        N/A     57  23  26 W15G21      N/A
ROCKGLEN         N/A     55  21  26 W10G18      N/A
ASSINIBOIA       N/A     37  28  70 S5          N/A
$$




USA.gov is the U.S. government's official web portal to all federal, state and local government web resources and services.